Weather History for Monroe, NC

Change the Weather History Date:

Wednesday, February 19, 2014

  Actual Average (KCLT) Record (KCLT)
Temperature  
Mean Temperature 63 °F 45 °F  
Max Temperature 73 °F 56 °F 76 °F (1939)
Min Temperature 53 °F 34 °F 8 °F (1958)
Degree Days  
Heating Degree Days 2 20  
Month to date heating degree days 420  
Since 1 July heating degree days 2527  
Cooling Degree Days 0 0  
Month to date cooling degree days 0  
Year to date cooling degree days 0  
Growing Degree Days 13 (Base 50)    
Moisture  
Dew Point 54 °F    
Average Humidity 80    
Maximum Humidity 97    
Minimum Humidity 51    
Precipitation  
Precipitation 0.28 in 0.13 in 2.08 in (1884)
Month to date precipitation 2.16  
Year to date precipitation 5.57  
Snow  
Snow 0.00 in 0.00 in 1.40 in (1999)
Month to date snowfall 0.8  
Since 1 July snowfall 3.3  
Snow Depth -    
Sea Level Pressure  
Sea Level Pressure 30.00 in    
Wind  
Wind Speed 9 mph (SW)    
Max Wind Speed 20 mph    
Max Gust Speed 30 mph    
Visibility 8 miles    
Events Rain , Thunderstorm    
T = Trace of Precipitation, MM = Missing Value Source: NWS Daily Summary

Daily Weather History Graph

Daily Weather History Graph

Search for Another Location

Airport:

Trip Planner

Search our weather history database for the weather conditions in past years. The results will help you decide how hot, cold, wet, or windy it might be!

Date:

Astronomy

Feb. 19, 2014 Rise Set
Actual Time 7:04 AM EST 6:09 PM EST
Civil Twilight 6:38 AM EST 6:34 PM EST
Nautical Twilight 6:08 AM EST 7:04 PM EST
Astronomical Twilight 5:39 AM EST 7:33 PM EST
Moon 10:48 PM EST (2/19) 9:20 AM EST (2/19)
Length of Visible Light 11h 56m
Length of Day
11h 05m
Waning Gibbous, 80% of the Moon is Illuminated
Feb 19
Waning Gibbous
Feb 22
Last Quarter
Mar 1
New
Mar 8
First Quarter
Mar 16
Full

Hourly Weather History & Observations

Time (EST) Temp. Dew Point Humidity Pressure Visibility Wind Dir Wind Speed Gust Speed Precip Events Conditions
12:53 AM 55.9 °F 42.1 °F 60% 30.08 in 10.0 mi South 5.8 mph - N/A   Overcast
1:53 AM 55.9 °F 44.1 °F 64% 30.05 in 10.0 mi South 5.8 mph - N/A   Overcast
2:01 AM 55.4 °F 44.6 °F 67% 30.02 in 10.0 mi Variable 6.9 mph - 0.00 in Rain , Thunderstorm Light Rain
2:21 AM 53.6 °F 50.0 °F 88% 30.02 in 1.8 mi SSW 5.8 mph - 0.19 in Rain , Thunderstorm Heavy Thunderstorms and Rain
2:27 AM 53.6 °F 51.8 °F 94% 30.02 in 2.0 mi WSW 5.8 mph - 0.19 in Rain , Thunderstorm Light Thunderstorms and Rain
2:36 AM 53.6 °F 51.8 °F 94% 30.01 in 6.0 mi Calm Calm - 0.19 in Rain , Thunderstorm Light Thunderstorms and Rain
2:53 AM 53.1 °F 52.0 °F 96% 30.02 in 5.0 mi SSE 3.5 mph - 0.19 in Rain , Thunderstorm Light Rain
3:21 AM 55.4 °F 51.8 °F 88% 30.01 in 9.0 mi WSW 9.2 mph - 0.01 in Thunderstorm Overcast
3:24 AM 55.4 °F 51.8 °F 88% 30.01 in 8.0 mi NW 10.4 mph - 0.01 in Thunderstorm Overcast
3:42 AM 55.4 °F 51.8 °F 88% 29.99 in 9.0 mi SW 15.0 mph 21.9 mph 0.01 in Rain , Thunderstorm Light Rain
3:53 AM 55.9 °F 53.1 °F 90% 30.01 in 8.0 mi SW 10.4 mph 26.5 mph 0.01 in Rain , Thunderstorm Light Rain
4:16 AM 55.4 °F 51.8 °F 88% 30.00 in 4.0 mi West 17.3 mph 27.6 mph 0.07 in Rain Rain
4:53 AM 54.0 °F 52.0 °F 93% 30.03 in 7.0 mi WNW 9.2 mph - 0.07 in Rain Light Rain
5:53 AM 54.0 °F 52.0 °F 93% 30.01 in 4.0 mi South 6.9 mph - 0.01 in   Overcast
6:53 AM 54.0 °F 53.1 °F 97% 30.01 in 5.0 mi South 4.6 mph - N/A   Overcast
7:16 AM 55.4 °F 53.6 °F 94% 29.97 in 5.0 mi South 6.9 mph - N/A   Overcast
7:44 AM 57.2 °F 55.4 °F 94% 29.96 in 6.0 mi SSW 10.4 mph - N/A   Overcast
7:53 AM 57.0 °F 55.0 °F 93% 30.00 in 6.0 mi SSW 13.8 mph 20.7 mph N/A   Mostly Cloudy
8:03 AM 57.2 °F 55.4 °F 94% 29.97 in 7.0 mi SSW 9.2 mph - N/A   Scattered Clouds
8:18 AM 57.2 °F 55.4 °F 94% 29.98 in 7.0 mi SW 12.7 mph - N/A   Mostly Cloudy
8:26 AM 57.2 °F 55.4 °F 94% 29.98 in 8.0 mi SW 10.4 mph 19.6 mph N/A   Mostly Cloudy
8:33 AM 59.0 °F 55.4 °F 88% 29.99 in 8.0 mi SW 13.8 mph 17.3 mph N/A   Mostly Cloudy
8:53 AM 59.0 °F 57.0 °F 93% 30.01 in 10.0 mi SW 13.8 mph 23.0 mph N/A   Mostly Cloudy
9:11 AM 60.8 °F 57.2 °F 88% 29.98 in 10.0 mi SW 17.3 mph 26.5 mph N/A   Mostly Cloudy
9:38 AM 62.6 °F 57.2 °F 82% 29.98 in 10.0 mi SW 17.3 mph 23.0 mph N/A   Overcast
9:53 AM 62.1 °F 57.0 °F 84% 30.01 in 10.0 mi SW 16.1 mph 25.3 mph N/A   Overcast
10:53 AM 64.9 °F 57.9 °F 78% 30.00 in 10.0 mi SW 19.6 mph 28.8 mph 0.00 in   Overcast
11:45 AM 66.2 °F 57.2 °F 73% 29.97 in 10.0 mi SW 18.4 mph 26.5 mph N/A   Scattered Clouds
11:53 AM 69.1 °F 57.9 °F 68% 29.98 in 10.0 mi SW 19.6 mph 27.6 mph N/A   Partly Cloudy
12:53 PM 71.1 °F 57.9 °F 63% 29.96 in 10.0 mi WSW 19.6 mph 29.9 mph N/A   Scattered Clouds
1:53 PM 72.0 °F 57.0 °F 59% 29.95 in 10.0 mi SW 16.1 mph 25.3 mph N/A   Mostly Cloudy
2:53 PM 73.9 °F 55.9 °F 53% 29.94 in 10.0 mi SW 16.1 mph 26.5 mph N/A   Mostly Cloudy
3:53 PM 73.0 °F 54.0 °F 51% 29.94 in 10.0 mi WSW 19.6 mph 29.9 mph N/A   Mostly Cloudy
4:53 PM 72.0 °F 54.0 °F 53% 29.96 in 10.0 mi SW 12.7 mph - N/A   Scattered Clouds
5:53 PM 70.0 °F 53.1 °F 55% 30.00 in 10.0 mi SW 17.3 mph 24.2 mph N/A   Partly Cloudy
6:53 PM 66.9 °F 53.1 °F 61% 30.02 in 10.0 mi SSW 6.9 mph - N/A   Clear
7:53 PM 64.9 °F 54.0 °F 68% 30.05 in 10.0 mi SW 8.1 mph - N/A   Clear
8:53 PM 62.1 °F 54.0 °F 75% 30.06 in 10.0 mi SW 5.8 mph - N/A   Clear
9:53 PM 61.0 °F 54.0 °F 78% 30.08 in 10.0 mi SW 4.6 mph - N/A   Clear
10:53 PM 59.0 °F 54.0 °F 83% 30.09 in 10.0 mi SSW 5.8 mph - N/A   Clear
11:53 PM 61.0 °F 54.0 °F 78% 30.08 in 10.0 mi SSW 6.9 mph - N/A   Clear